Disclaimer

Please do not use the information listed here in-flight or in-navigation, as they are not provided to us by the airports but are provided by volunteers, so they might be outdated.

Search


Regions


Airport information page

No radio frequency information is available.

Airport informations:
Latitude: 44° 24' 28.33" N
Longitude: 002° 28' 57.62" E
Elevation: 1910 feet - 582 meters
Operating hours: Remarks
Operating agency: Civil government, landing fees and diplomatic clearance may be required
Timezone: UTC+1(+2DT) - Last Sunday in March to last Sunday in October
Fuel: Jet A1, without icing nhibitor.

100/130 MIL Spec, low lead, aviation gasoline (BLUE)

Runway information:
13/31 - 6693 x 148 feet< - >2040 x 45 meters

Recent METARs:
LFCR 221900Z AUTO 28015KT 7000 OVC003 M00/M00 Q1005 BECMG 3000 BR
LFCR 221930Z AUTO 30014KT 9999 BKN008 OVC012 M00/M01 Q1005 TEMPO 0500 FG VV///
LFCR 222000Z AUTO 30009KT 9999 BKN006 OVC011 M00/M01 Q1005 TEMPO 0500 FG VV///

Airport on the map: